This is the latest recevied weather packets stored in our database for station/object SP8EBC-11. If no packets are shown the sender has not sent any weather packets the latest 1 day(s).
| Time | Temp. | Humidity | Pressure | Rain* | Wind** | Luminosity | Snow |
|---|---|---|---|---|---|---|---|
| 1777948379 | 12.22° C | 70% | 995.1 hPa | - | 0.89 m/s, 103° | - | - |
| 1777948258 | 12.22° C | 70% | 995.1 hPa | - | 1.34 m/s, 102° | - | - |
| 1777948138 | 12.22° C | 70% | 995.2 hPa | - | 1.79 m/s, 106° | - | - |
| 1777948018 | 12.22° C | 70% | 995.1 hPa | - | 1.79 m/s, 109° | - | - |
| 1777947898 | 12.22° C | 69% | 995.1 hPa | - | 1.34 m/s, 113° | - | - |
| 1777947779 | 12.22° C | 69% | 995.2 hPa | - | 0.89 m/s, 129° | - | - |
| 1777947658 | 12.22° C | 69% | 995.2 hPa | - | 0.89 m/s, 263° | - | - |
| 1777947538 | 12.22° C | 69% | 995.2 hPa | - | 0.89 m/s, 272° | - | - |
| 1777947418 | 12.22° C | 69% | 995.1 hPa | - | 0.89 m/s, 272° | - | - |
| 1777947298 | 12.22° C | 69% | 995.1 hPa | - | 0.89 m/s, 272° | - | - |
| 1777947178 | 12.22° C | 69% | 995.1 hPa | - | 0.89 m/s, 272° | - | - |
| 1777947058 | 12.22° C | 69% | 995.2 hPa | - | 0.89 m/s, 272° | - | - |
| 1777946940 | 12.22° C | 69% | 995.2 hPa | - | 0.89 m/s, 272° | - | - |
| 1777946818 | 12.22° C | 69% | 995.2 hPa | - | 0.89 m/s, 272° | - | - |
| 1777946697 | 12.22° C | 69% | 995.2 hPa | - | 0.89 m/s, 272° | - | - |
| 1777946578 | 12.22° C | 69% | 995.3 hPa | - | 0.45 m/s, 272° | - | - |
| 1777946458 | 12.22° C | 69% | 995.3 hPa | - | 0 m/s | - | - |
| 1777946337 | 12.22° C | 69% | 995.4 hPa | - | 0 m/s | - | - |
| 1777946217 | 12.22° C | 69% | 995.5 hPa | - | 0 m/s | - | - |
| 1777946098 | 12.22° C | 69% | 995.5 hPa | - | 0 m/s | - | - |
| 1777945977 | 12.22° C | 68% | 995.4 hPa | - | 0 m/s | - | - |
| 1777945857 | 12.22° C | 68% | 995.4 hPa | - | 0 m/s | - | - |
| 1777945737 | 12.22° C | 68% | 995.4 hPa | - | 0 m/s | - | - |
| 1777945617 | 12.22° C | 68% | 995.4 hPa | - | 0 m/s | - | - |
| 1777945368 | 12.78° C | 68% | 995.6 hPa | - | 0.89 m/s, 272° | - | - |
* Rain since midnight (hover to see other rain measurements)
** Current wind speed in m/s (hover to see current wind gust speed)